Location: Unspecified
(49.2170°N, 0.0000°E)
Time: 17:10:17
(UTC+00:00)

Envisat - Pass Details

Date: 01 December 2020
Orbit: 764 x 766 km, 98.1° (Epoch: 20 January)

Event Time Altitude Azimuth Distance (km) Brightness Sun altitude
Rises 18:16:20 0° 209° (SSW) 3,222 6.8 -20.8°
Reaches altitude 10° 18:19:20 10° 228° (SW) 2,302 6.3 -21.2°
Maximum altitude 18:22:47 18° 271° (W) 1,799 5.8 -21.8°
Drops below altitude 10° 18:26:17 10° 315° (NW) 2,314 5.9 -22.4°
Sets 18:29:20 0° 333° (NNW) 3,246 6.5 -22.8°
